Wind_Speed
13 13 13 12 12 12 11 11 11 11 10 10 10 10 10 10 10 10 10 10 10 11 11 12 11 12 11 11 12 12 12 12 12 13 13 13 13 13 13 12 12 13 13 13
13 13 12 12 12 12 12 12 11 11 11 11 11 11 11 11 10 10 10 10 10 11 12 12 12 12 12 12 12 12 13 14 14 14 13 13 14 14 14 13 14 14 14 13
13 12 13 13 13 13 13 12 12 12 11 12 12 11 11 12 11 11 11 11 11 11 12 12 12 12 12 12 12 12 13 13 14 14 14 13 13 14 14 14 14 15 14 14
13 13 13 13 13 13 13 13 13 12 12 12 13 11 11 12 11 11 11 11 12 12 12 12 12 12 13 13 13 13 13 13 14 14 13 13 13 14 14 15 15 15 15 15
14 14 14 14 13 13 12 13 13 13 13 13 13 13 11 11 11 10 11 12 12 12 12 12 12 13 13 14 14 14 14 15 15 14 14 14 14 15 15 15 16 16 15 15
15 15 14 14 14 14 13 13 14 14 14 14 14 14 11 11 11 11 12 12 12 12 11 12 13 13 14 14 14 15 15 16 16 15 15 15 15 16 16 16 16 15 15 15
14 15 14 14 14 14 14 14 15 15 15 14 14 15 13 12 12 12 12 12 12 12 12 13 13 14 15 15 15 15 16 16 16 16 17 17 17 16 16 16 16 16 15 15
14 15 15 15 15 15 15 15 16 16 16 14 15 16 14 13 13 13 13 13 13 13 13 13 14 15 15 16 16 17 17 17 18 18 19 18 17 16 16 16 17 17 16 16
14 14 15 15 15 15 15 16 16 17 17 16 16 16 16 15 14 14 14 14 14 15 15 15 15 16 17 18 18 18 18 19 19 19 19 19 18 18 18 18 18 18 18 18
14 15 15 16 16 16 16 16 17 18 19 19 18 17 17 16 16 16 16 15 16 16 17 17 17 17 18 19 19 19 19 19 20 20 20 20 20 19 20 20 19 19 19 19
16 16 16 17 17 17 18 18 19 20 20 20 20 18 17 18 18 19 18 17 17 17 18 18 18 18 19 20 21 21 21 21 21 21 21 21 21 21 21 21 21 21 20 20
17 18 18 18 18 19 20 20 21 22 22 22 22 20 18 20 20 20 20 19 19 19 19 19 20 20 20 21 22 22 22 21 21 21 21 22 22 22 21 22 22 21 21 21
18 19 19 19 19 21 21 21 22 22 23 24 24 21 19 21 22 22 22 21 21 21 21 21 21 21 21 22 22 23 22 22 22 22 22 22 22 22 22 22 22 22 22 22
20 20 21 21 21 21 22 22 22 24 25 25 24 23 22 23 23 24 23 23 23 23 23 23 23 22 23 23 23 23 23 23 23 23 23 23 23 23 23 23 23 23 23 23
21 22 22 22 23 23 23 23 23 25 27 27 25 25 24 25 25 24 25 25 24 24 24 25 24 24 24 24 24 24 24 24 24 24 23 24 24 24 24 24 24 24 24 23
23 23 23 23 24 25 26 25 25 25 25 27 27 26 26 26 25 25 25 25 25 25 25 25 25 25 25 25 25 24 24 25 25 25 25 24 25 25 25 25 25 25 25 24
23 24 24 24 24 26 26 24 25 26 26 27 27 26 26 26 26 26 26 26 26 26 25 25 25 26 26 26 25 25 25 25 25 25 25 25 26 25 26 26 26 26 26 25
23 24 26 26 26 27 25 25 25 26 26 27 27 26 26 25 26 26 26 27 26 26 26 26 26 26 27 26 25 25 26 26 25 26 26 26 26 26 26 27 27 27 27 26
25 26 26 26 27 27 26 25 25 26 26 26 27 26 26 26 26 26 26 27 27 27 27 27 27 27 27 27 27 27 27 27 27 27 27 27 27 27 28 28 28 28 28 28
26 26 27 27 28 28 26 26 26 27 27 26 26 27 27 27 27 27 27 27 27 27 27 27 27 27 27 27 28 28 29 29 28 28 28 28 28 29 29 29 29 29 29 28
26 27 27 27 28 28 27 26 26 27 27 26 26 26 27 28 28 28 28 28 27 27 28 28 27 27 28 28 29 29 29 29 29 29 29 30 29 29 29 30 29 29 29 29
27 27 27 27 28 27 26 26 26 27 27 28 27 27 28 28 28 28 29 29 28 28 29 29 29 28 28 29 29 29 29 29 30 30 30 31 31 31 30 30 31 31 30 30
27 27 27 28 28 28 28 28 27 27 27 27 27 27 28 28 28 28 29 30 29 29 30 30 30 30 30 30 29 29 29 30 30 30 30 31 31 31 31 31 32 32 32 31
26 26 28 28 28 28 28 28 28 29 29 29 29 29 28 28 27 28 29 30 30 30 31 31 31 31 31 31 30 29 30 30 30 31 31 31 31 31 32 32 33 33 33 33
26 27 28 29 28 29 29 29 29 29 30 30 29 29 29 29 29 29 29 30 30 31 31 32 32 32 32 31 30 30 30 30 30 30 30 30 30 30 31 32 33 33 34 34
27 28 29 29 28 29 29 29 29 29 30 30 30 30 30 30 30 30 30 30 31 31 32 31 31 32 31 31 31 30 30 30 30 31 31 31 31 31 31 32 33 33 33 33
Wind_Direction
242 241 239 240 239 239 242 244 245 248 249 254 260 264 262 264 265 266 268 269 270 273 276 277 278 280 282 281 281 286 289 290 293 294 293 293 291 291 291 291 292 293 293 294
238 238 235 235 236 237 241 243 245 251 255 259 259 260 260 263 264 264 266 269 271 275 276 278 278 278 280 281 280 282 287 288 290 291 291 293 290 290 290 290 291 291 291 291
236 234 234 234 234 236 240 244 248 255 254 258 258 257 257 261 264 263 265 269 273 276 275 275 278 279 279 279 282 284 285 286 288 287 289 291 290 290 290 291 291 291 290 288
231 231 232 233 234 237 242 248 251 253 255 259 261 259 256 262 265 266 265 270 274 277 276 276 278 281 280 279 280 281 282 283 285 286 287 290 293 292 291 291 290 289 288 287
231 231 232 233 236 241 246 248 251 255 257 260 263 263 256 261 263 265 268 273 275 275 274 275 278 280 281 281 280 280 280 281 282 285 290 289 290 290 290 290 290 290 290 287
232 233 235 238 240 242 244 247 250 255 258 259 260 265 262 262 265 266 270 275 278 279 276 276 277 278 281 282 281 279 280 281 282 284 287 288 288 289 289 290 290 291 291 290
233 234 237 239 241 242 244 246 250 253 254 257 261 267 270 270 272 274 275 278 280 281 281 280 278 279 281 281 281 280 280 281 282 283 285 286 285 287 288 288 289 290 290 290
237 235 236 238 240 243 246 248 251 254 255 256 259 266 271 272 275 277 278 280 280 280 279 279 280 280 280 281 281 281 281 281 280 278 280 282 282 284 285 286 286 288 288 287
240 236 238 240 241 243 248 251 253 256 259 260 260 265 269 272 275 277 279 281 284 283 283 282 282 281 281 281 282 281 280 281 281 280 280 280 281 282 282 283 285 286 286 286
245 241 239 242 244 246 251 255 254 255 262 265 263 264 269 271 274 276 279 280 284 284 283 284 283 281 281 281 281 280 280 280 281 280 280 280 280 281 281 281 284 286 285 284
249 248 245 244 245 247 248 250 254 257 262 265 268 267 270 271 272 274 276 279 281 282 282 282 282 282 282 281 280 280 280 279 278 278 278 279 281 282 281 282 282 284 284 283
253 252 249 248 247 249 251 252 254 258 261 265 269 268 268 269 271 272 275 277 279 279 280 282 283 283 282 281 281 281 279 278 277 277 278 279 280 281 281 280 280 282 283 283
253 255 254 250 248 250 252 255 256 259 261 263 266 270 268 267 269 271 273 275 276 277 278 278 281 281 281 280 281 281 280 277 276 276 277 278 278 279 281 280 279 280 279 281
253 256 257 257 256 255 254 256 257 259 261 265 266 269 268 267 270 273 274 276 276 277 278 279 279 279 280 280 281 281 280 278 277 276 277 278 278 279 280 279 278 278 278 279
254 256 259 260 260 259 259 257 257 258 261 263 265 266 267 268 270 272 274 276 277 278 279 280 281 280 281 280 281 281 278 277 277 277 277 278 277 278 279 278 277 278 277 277
256 258 260 260 260 261 261 260 260 260 261 263 265 266 266 267 269 271 274 277 278 279 281 280 280 280 281 281 280 278 277 276 276 278 278 276 276 277 278 277 276 277 277 276
258 259 261 261 261 262 262 263 262 263 263 264 266 267 266 263 265 270 272 273 275 277 278 278 278 279 280 281 279 278 277 276 276 277 277 277 276 275 276 276 275 275 276 276
260 261 263 263 262 262 267 266 264 264 265 264 266 267 267 267 269 270 271 270 272 275 276 277 278 279 280 280 278 277 277 276 277 277 278 278 276 275 274 274 274 274 275 275
262 262 263 263 263 263 263 264 264 265 265 264 265 267 268 269 270 271 272 271 272 274 276 277 278 278 279 279 278 277 276 276 277 278 279 278 276 276 275 274 273 274 274 273
261 262 263 264 264 265 264 265 265 265 265 266 266 266 267 267 267 269 271 271 272 273 274 276 277 278 279 279 278 277 276 275 275 276 276 276 276 275 274 273 273 273 273 273
262 263 264 264 265 266 265 267 268 268 269 267 265 266 266 266 267 269 269 270 271 272 272 274 276 277 278 279 280 279 278 276 276 276 276 275 276 275 274 272 273 274 274 274
263 264 265 265 265 266 266 266 267 269 268 267 266 267 268 269 269 269 269 270 271 274 274 275 276 277 277 279 280 280 279 278 277 277 277 275 275 276 274 273 274 274 273 273
262 263 265 266 267 267 266 267 267 268 268 268 266 268 270 270 269 269 269 270 271 272 274 275 276 277 277 279 280 280 279 279 278 278 277 275 274 275 275 274 274 275 275 274
261 263 264 265 266 267 268 268 268 268 269 268 269 271 270 269 268 268 270 270 271 272 274 274 275 276 277 278 278 278 278 278 277 278 278 276 275 274 274 275 275 274 275 274
264 264 265 266 266 266 267 267 268 268 268 268 269 270 270 267 268 268 269 271 273 273 274 274 275 276 276 276 277 278 278 277 277 278 279 278 276 276 276 275 275 275 275 275
265 265 267 268 267 267 266 266 267 268 269 269 269 269 268 269 270 271 271 272 273 274 275 275 275 275 276 276 276 275 275 275 276 277 277 277 276 276 276 276 275 275 275 275
Height
5844 5846 5847 5848 5849 5850 5850 5851 5851 5852 5852 5853 5853 5853 5854 5854 5854 5854 5854 5854 5854 5854 5853 5853 5853 5853 5852 5852 5851 5851 5850 5849 5848 5847 5846 5845 5844 5843 5843 5842 5841 5839 5838 5837
5841 5843 5844 5844 5845 5846 5847 5848 5848 5849 5849 5850 5850 5851 5851 5851 5851 5851 5851 5851 5851 5851 5850 5850 5850 5850 5849 5849 5848 5848 5847 5846 5845 5844 5843 5842 5841 5840 5839 5838 5837 5836 5835 5834
5838 5840 5840 5841 5842 5843 5844 5845 5846 5846 5846 5846 5847 5848 5848 5847 5847 5848 5848 5848 5848 5847 5847 5847 5847 5846 5846 5845 5845 5844 5843 5843 5842 5840 5839 5839 5838 5837 5836 5835 5834 5833 5831 5830
5834 5836 5837 5838 5839 5840 5841 5842 5842 5843 5843 5843 5844 5844 5845 5844 5844 5844 5844 5844 5844 5844 5844 5843 5843 5843 5842 5842 5841 5841 5840 5839 5838 5837 5836 5835 5835 5834 5833 5831 5830 5829 5827 5826
5831 5832 5833 5834 5836 5837 5838 5839 5839 5839 5839 5840 5840 5840 5842 5841 5841 5841 5841 5841 5840 5840 5840 5840 5839 5839 5839 5838 5837 5837 5836 5836 5835 5834 5833 5832 5831 5830 5829 5828 5826 5825 5823 5822
5828 5829 5830 5832 5833 5834 5835 5835 5836 5835 5836 5837 5837 5837 5838 5838 5838 5838 5838 5837 5837 5837 5836 5836 5836 5835 5835 5834 5834 5833 5833 5832 5831 5830 5829 5828 5827 5826 5825 5824 5822 5821 5819 5818
5824 5825 5826 5828 5829 5830 5831 5832 5832 5832 5832 5833 5833 5833 5835 5834 5834 5834 5834 5834 5833 5833 5833 5833 5832 5831 5831 5830 5830 5829 5829 5828 5827 5826 5825 5824 5823 5822 5821 5819 5818 5817 5815 5814
5820 5822 5823 5824 5826 5826 5827 5828 5829 5829 5829 5829 5829 5828 5830 5830 5830 5829 5829 5829 5829 5829 5829 5828 5828 5827 5826 5826 5825 5825 5824 5823 5822 5821 5821 5820 5819 5817 5816 5815 5814 5813 5811 5810
5816 5819 5819 5820 5821 5823 5823 5824 5825 5825 5824 5825 5825 5825 5826 5825 5825 5825 5825 5825 5825 5824 5824 5824 5823 5823 5822 5821 5820 5819 5819 5818 5817 5816 5815 5815 5813 5812 5811 5810 5809 5808 5806 5805
5812 5814 5815 5816 5817 5818 5819 5820 5820 5820 5819 5819 5820 5821 5822 5821 5821 5821 5821 5821 5821 5820 5819 5819 5819 5818 5817 5816 5815 5814 5813 5813 5812 5811 5810 5809 5808 5807 5806 5804 5803 5802 5801 5800
5808 5810 5811 5812 5812 5813 5814 5815 5814 5815 5815 5815 5815 5819 5817 5817 5816 5816 5816 5816 5816 5815 5815 5814 5813 5813 5812 5811 5810 5809 5808 5807 5806 5805 5804 5803 5802 5801 5800 5799 5798 5797 5796 5794
5803 5804 5805 5807 5808 5808 5809 5810 5810 5810 5810 5810 5810 5814 5812 5811 5811 5811 5811 5811 5811 5810 5810 5809 5808 5807 5806 5805 5804 5803 5802 5801 5800 5799 5798 5797 5796 5795 5794 5793 5792 5791 5790 5788
5799 5799 5800 5802 5804 5804 5803 5804 5804 5804 5804 5804 5804 5808 5807 5806 5805 5805 5805 5805 5805 5804 5804 5803 5802 5801 5800 5799 5798 5797 5796 5794 5794 5793 5792 5791 5790 5789 5788 5787 5785 5784 5783 5782
5793 5794 5795 5796 5797 5797 5798 5798 5798 5798 5797 5797 5798 5800 5800 5800 5799 5799 5799 5799 5798 5798 5797 5796 5795 5794 5794 5793 5792 5790 5789 5788 5787 5786 5785 5784 5783 5782 5781 5780 5779 5778 5776 5776
5787 5788 5789 5789 5790 5790 5791 5792 5792 5791 5791 5791 5792 5792 5793 5793 5793 5793 5792 5792 5791 5791 5790 5789 5788 5787 5787 5786 5785 5784 5782 5781 5780 5779 5778 5777 5776 5775 5774 5773 5771 5770 5769 5768
5781 5782 5783 5783 5783 5783 5783 5784 5785 5784 5784 5784 5785 5785 5786 5786 5786 5786 5786 5785 5784 5784 5783 5782 5781 5780 5779 5778 5777 5776 5775 5774 5773 5772 5771 5770 5768 5767 5766 5765 5764 5763 5762 5761
5775 5775 5775 5776 5776 5775 5776 5778 5777 5777 5777 5778 5777 5779 5778 5778 5778 5779 5778 5778 5777 5776 5776 5775 5774 5772 5771 5771 5770 5768 5767 5767 5765 5764 5763 5762 5761 5760 5759 5757 5756 5755 5754 5753
5768 5768 5768 5768 5769 5768 5772 5770 5770 5769 5769 5770 5770 5770 5770 5771 5771 5770 5770 5770 5769 5769 5768 5767 5766 5765 5764 5763 5762 5761 5759 5758 5757 5757 5756 5754 5753 5752 5751 5749 5748 5747 5746 5745
5761 5761 5761 5761 5760 5760 5763 5763 5762 5762 5761 5762 5762 5762 5762 5762 5762 5762 5761 5761 5761 5760 5760 5759 5758 5757 5756 5755 5754 5753 5751 5750 5749 5748 5747 5746 5745 5744 5742 5741 5740 5739 5738 5737
5753 5753 5754 5753 5752 5753 5756 5755 5753 5754 5753 5755 5754 5754 5754 5754 5754 5755 5754 5753 5752 5752 5751 5750 5749 5748 5747 5746 5745 5744 5743 5742 5740 5739 5738 5737 5736 5735 5734 5733 5731 5730 5730 5729
5745 5745 5745 5745 5744 5744 5746 5746 5746 5746 5747 5746 5745 5745 5745 5745 5746 5746 5745 5744 5744 5743 5742 5742 5741 5740 5738 5737 5736 5735 5734 5733 5732 5730 5729 5728 5727 5726 5725 5724 5723 5722 5721 5720
5737 5737 5737 5736 5736 5739 5738 5737 5738 5738 5737 5737 5737 5737 5737 5736 5736 5736 5736 5735 5735 5734 5733 5732 5732 5731 5730 5728 5727 5726 5725 5723 5722 5721 5720 5719 5718 5717 5716 5715 5714 5713 5712 5711
5728 5729 5728 5729 5730 5730 5729 5729 5728 5728 5728 5728 5728 5728 5728 5728 5727 5727 5727 5726 5726 5725 5724 5723 5722 5721 5720 5719 5718 5717 5715 5714 5713 5711 5710 5709 5708 5707 5706 5705 5705 5704 5703 5702
5720 5720 5719 5719 5720 5720 5720 5719 5719 5719 5719 5719 5719 5719 5719 5719 5719 5718 5718 5717 5716 5716 5715 5713 5713 5712 5711 5709 5708 5707 5706 5705 5704 5702 5701 5700 5699 5698 5697 5696 5695 5694 5693 5692
5712 5711 5710 5710 5711 5711 5711 5711 5710 5710 5710 5710 5710 5710 5709 5709 5709 5709 5708 5707 5707 5706 5705 5704 5703 5702 5701 5700 5699 5698 5697 5695 5694 5693 5691 5690 5689 5689 5688 5687 5686 5685 5684 5682
5703 5702 5701 5702 5702 5701 5702 5701 5701 5701 5701 5701 5701 5701 5700 5700 5699 5699 5698 5698 5697 5696 5695 5694 5693 5692 5691 5690 5689 5688 5687 5686 5684 5683 5682 5681 5680 5679 5678 5677 5676 5674 5673 5672